Lapse_Rate
9.3 8.7 9.0 9.1 8.7 9.2 8.9 9.0 8.7 8.2 8.4 8.7 9.3 9.0 8.6 9.1 8.4 8.6 8.4 8.4 8.3 8.1 8.3 8.5 8.4 9.1 8.5 6.8 6.9 6.0 7.6 7.9 8.9 8.1 7.3 7.4 7.1 6.9 6.5 6.6 6.4 6.5 6.5 6.0 5.9 6.0 6.1
9.4 9.0 9.3 9.1 9.4 9.2 8.4 8.0 7.9 7.9 8.2 8.3 8.4 8.6 8.9 8.4 8.8 9.3 8.9 8.4 8.1 8.3 8.3 8.2 8.2 7.8 7.8 6.6 8.1 5.2 5.7 6.9 7.6 8.1 7.3 7.5 7.1 7.0 6.7 6.6 6.5 6.3 6.3 6.4 6.1 6.3 6.0
8.7 9.3 8.8 9.1 9.3 8.9 8.6 7.8 8.4 8.7 8.3 8.3 8.4 8.6 8.5 8.5 8.4 8.4 8.3 8.2 8.1 8.3 8.2 8.2 8.5 7.8 7.3 7.3 7.8 5.1 6.2 6.7 7.7 7.6 7.2 6.4 7.2 6.5 6.0 6.5 5.8 5.9 6.5 6.5 6.4 6.3 6.4
8.2 9.0 8.6 9.3 9.3 9.1 8.5 8.0 9.1 8.4 8.2 8.4 8.3 8.0 8.1 8.3 8.6 9.3 8.4 8.3 7.8 7.7 8.2 8.4 8.3 7.4 7.2 8.2 7.5 7.1 5.7 6.0 7.7 7.6 7.9 6.2 6.4 5.7 6.1 6.1 6.3 6.5 6.5 6.5 6.5 6.5 6.2
8.9 8.8 9.2 8.7 8.8 9.0 8.8 8.4 9.3 9.0 8.4 8.4 8.8 9.2 8.5 8.3 9.2 8.7 8.3 7.6 7.5 7.5 7.6 8.5 7.2 6.9 6.8 7.3 6.8 6.7 6.4 6.3 6.7 6.2 5.6 6.2 6.1 6.1 6.3 6.5 6.5 6.5 6.5 6.5 6.5 6.6 6.5
8.7 9.4 9.0 8.7 9.1 9.0 9.1 9.5 9.1 8.6 9.2 9.2 8.3 8.5 9.1 9.3 9.4 8.5 8.1 7.4 7.1 6.8 6.7 8.1 7.3 6.8 6.8 7.0 6.3 7.1 7.1 6.4 6.8 6.0 6.9 7.0 6.4 6.5 6.5 6.5 6.5 6.5 6.5 6.5 6.5 6.5 6.5
8.3 9.2 9.0 8.9 8.8 8.6 9.3 9.3 8.4 9.2 8.7 8.6 8.3 7.8 8.1 8.3 8.6 8.4 7.0 4.9 4.9 6.0 6.8 6.2 6.8 6.6 6.7 6.8 6.3 5.9 7.7 7.1 6.5 6.5 6.5 6.7 6.5 6.5 6.5 6.5 6.5 6.5 6.5 6.5 6.5 6.5 6.5
8.9 8.9 9.1 9.1 9.4 9.1 9.4 8.6 9.3 8.2 8.4 8.3 8.1 7.9 7.6 7.7 8.2 8.2 5.5 5.5 6.7 7.3 6.5 6.3 6.7 7.6 7.3 6.2 6.9 6.0 7.6 6.6 6.6 6.5 6.5 6.5 6.5 6.5 6.5 6.5 6.5 6.5 6.5 6.5 6.5 6.5 6.5
7.7 9.2 8.7 8.8 9.3 9.3 9.3 9.0 8.9 8.9 8.3 7.8 7.7 7.4 8.3 7.6 7.9 5.4 5.5 6.5 6.3 6.7 6.7 7.1 7.3 7.4 7.8 7.1 7.0 6.9 7.2 6.9 6.5 6.5 6.5 6.5 6.5 6.5 6.5 6.5 6.5 6.5 6.5 6.5 6.5 6.5 6.5
7.4 8.9 8.6 9.4 9.1 9.3 9.1 8.3 8.6 8.7 8.2 7.8 7.0 7.5 7.4 7.2 6.1 6.6 6.4 7.1 6.6 6.3 6.5 6.5 6.7 7.3 7.1 7.3 6.6 7.6 7.5 6.7 6.5 6.5 6.5 6.5 6.5 6.5 6.5 6.5 6.5 6.5 6.5 6.5 6.5 6.5 6.5
7.0 8.3 8.5 9.2 9.3 9.3 8.6 8.2 8.2 7.8 7.5 7.9 7.2 7.0 7.4 7.0 6.6 7.1 7.0 7.0 6.6 5.2 6.5 6.5 6.6 7.3 7.0 6.8 6.4 6.8 6.7 6.5 6.5 6.5 6.5 6.5 6.5 6.5 6.5 6.5 6.5 6.5 6.5 6.5 6.5 6.5 6.5
6.4 8.1 8.5 9.2 9.2 9.2 9.0 8.2 8.5 7.9 6.7 7.5 7.2 6.6 6.9 6.1 6.8 6.5 5.7 6.2 5.3 6.5 6.5 6.5 6.7 6.5 6.5 6.7 6.6 6.8 6.4 6.6 6.6 6.5 6.5 6.5 6.4 6.5 6.5 6.5 6.5 6.5 6.5 6.5 6.5 6.5 6.5
6.2 8.4 8.5 8.6 9.1 8.9 7.2 8.0 7.3 7.7 6.2 6.6 7.1 6.6 4.6 5.6 6.1 6.4 6.0 5.2 6.5 6.5 6.5 6.5 6.5 6.5 6.5 6.5 6.5 6.5 6.5 6.5 6.5 6.5 6.5 6.5 6.5 6.5 6.6 6.5 6.5 6.5 6.5 6.5 6.5 6.5 6.5
5.2 7.9 8.4 8.7 8.9 8.3 6.8 6.5 5.4 6.0 5.7 5.7 6.1 6.4 5.3 6.0 6.0 5.6 6.2 6.2 6.5 6.5 6.5 6.5 6.5 6.5 6.5 6.5 6.5 6.5 6.5 6.5 6.5 6.5 6.5 6.5 6.5 6.5 6.5 6.5 6.5 6.5 6.5 6.5 6.5 6.5 6.5
4.8 6.4 8.1 8.7 8.4 7.5 5.5 5.3 5.3 5.1 5.3 5.0 4.3 2.6 4.3 5.3 5.9 5.0 6.4 6.5 6.5 6.5 6.5 6.5 6.5 6.5 6.5 6.5 6.5 6.5 6.5 6.5 6.5 6.5 6.5 6.5 6.5 6.5 6.5 6.5 6.5 6.5 6.5 6.5 6.5 6.5 6.5
4.8 5.3 8.3 8.2 8.2 7.9 5.4 5.2 5.1 4.8 4.7 4.6 1.7 2.2 3.5 4.8 4.8 4.1 6.0 6.5 6.5 6.6 6.5 6.5 6.5 6.5 6.5 6.5 6.5 6.5 6.5 6.5 6.5 6.5 6.5 6.5 6.5 6.5 6.5 6.5 6.5 6.5 6.5 6.5 6.5 6.5 6.5
5.0 5.5 7.8 8.0 8.2 8.1 5.8 5.1 5.1 5.0 4.4 3.7 1.1 3.4 3.8 3.6 3.7 4.9 6.5 6.5 6.5 6.7 6.8 6.5 6.5 6.5 6.5 6.5 6.5 6.5 6.5 6.5 6.5 6.5 6.4 6.5 6.5 6.5 6.5 6.5 6.5 6.5 6.5 6.5 6.5 6.5 6.5
5.1 5.4 6.0 8.2 8.3 7.4 5.5 5.0 5.0 5.2 4.6 3.2 1.3 6.3 3.0 2.7 5.3 6.1 6.5 6.5 6.8 6.5 6.3 6.5 6.5 6.5 6.5 6.5 6.5 6.5 6.5 6.5 6.4 6.3 6.5 6.5 6.5 6.5 6.5 6.5 6.5 6.5 6.5 6.5 6.5 6.5 6.5
5.2 5.7 6.2 7.8 8.0 7.1 5.6 4.9 5.0 5.2 5.9 5.3 3.1 2.4 2.0 3.1 6.5 6.5 6.5 6.5 6.6 6.5 6.5 6.5 6.5 6.5 6.5 6.5 6.5 6.5 6.5 6.4 6.1 6.5 6.5 6.5 6.5 6.5 6.5 6.5 6.5 6.5 6.5 6.5 6.5 6.5 6.5
5.7 6.0 6.3 7.6 7.8 7.6 6.3 5.3 4.8 4.9 5.4 4.3 3.4 6.5 2.8 3.0 5.5 6.5 6.5 6.5 6.5 6.1 6.5 6.4 6.5 6.4 6.5 6.5 6.5 6.5 6.5 6.5 6.1 6.4 6.4 6.1 6.5 6.5 6.5 6.5 6.5 6.5 6.5 6.5 6.5 6.5 6.5
5.8 6.3 6.4 7.5 8.1 8.5 7.4 6.7 4.8 4.7 5.1 3.6 3.5 6.3 7.0 6.5 6.4 6.5 6.5 6.5 6.5 6.5 6.1 5.8 6.5 6.5 6.5 6.5 6.5 6.5 6.5 6.5 6.4 6.6 6.2 6.5 6.5 6.5 6.5 6.5 6.5 6.5 6.5 6.5 6.5 6.5 6.5
6.4 6.8 6.6 6.7 8.3 8.6 7.7 7.5 6.0 4.9 4.6 4.6 6.7 6.6 6.5 6.5 6.6 6.5 6.5 6.5 6.5 6.5 6.5 6.5 6.5 6.5 6.5 6.5 6.5 6.5 6.5 6.5 6.5 6.5 6.5 6.5 6.5 6.5 6.5 6.5 6.5 6.5 6.5 6.5 6.5 6.5 6.5
6.7 6.8 7.0 7.6 8.6 8.2 8.2 7.9 7.7 6.2 4.7 4.0 5.9 6.7 6.6 6.2 6.5 6.5 6.5 6.5 6.5 6.5 6.3 6.1 6.4 6.5 6.5 6.5 6.3 5.7 5.2 4.9 6.1 6.5 6.5 6.5 6.5 6.5 6.5 6.5 6.5 6.5 6.5 6.5 6.5 6.5 6.5
7.1 7.0 7.4 7.8 8.0 8.4 8.4 8.2 8.2 8.4 6.2 4.5 6.3 6.1 6.6 6.5 6.5 6.5 6.5 6.5 6.5 6.5 6.5 6.4 6.0 6.5 6.2 5.3 4.9 5.0 4.5 5.0 5.5 6.3 6.1 6.5 6.5 6.5 6.5 6.5 6.5 6.5 6.5 6.5 6.5 6.5 6.5
7.8 8.1 8.0 7.7 7.8 8.3 8.2 8.5 8.4 8.7 8.6 4.9 4.7 5.9 6.7 6.5 6.3 6.3 6.4 6.5 6.4 5.6 6.3 6.3 5.9 5.2 5.0 6.1 6.5 6.5 6.5 6.5 6.5 6.5 6.5 6.5 6.5 6.5 6.5 6.5 6.5 6.5 6.5 6.5 6.5 6.5 6.5
8.3 8.3 8.1 8.0 8.0 8.0 7.8 8.1 8.2 8.8 9.0 5.8 5.1 6.3 6.3 6.8 6.4 6.4 6.5 6.2 6.5 6.5 6.5 6.3 5.8 4.6 5.0 6.4 6.5 6.5 6.5 6.5 6.5 6.5 6.5 6.5 6.5 6.5 6.5 6.5 6.5 6.5 6.5 6.0 6.4 6.5 6.4
7.5 7.6 7.8 7.9 8.2 8.1 7.8 8.0 8.1 8.4 8.9 6.9 6.0 6.9 6.4 6.8 6.4 6.5 6.5 6.2 5.1 6.0 6.5 6.2 6.0 5.9 5.0 6.5 6.5 6.5 6.5 6.5 6.5 6.5 6.5 6.5 6.5 6.5 6.5 6.5 6.5 6.5 6.4 6.2 6.5 6.5 6.2
7.1 7.2 7.8 7.8 8.2 8.1 7.9 7.4 7.9 8.2 8.8 6.7 5.7 6.4 7.0 6.6 6.1 6.5 6.7 6.2 5.4 4.9 6.5 5.4 5.9 5.6 6.2 6.5 6.5 6.5 6.5 6.5 6.5 6.5 6.5 6.5 6.5 6.5 6.5 6.5 6.5 6.1 6.3 6.5 6.4 5.6 5.7
6.8 7.3 7.8 8.1 8.3 7.9 7.6 7.4 8.6 8.7 8.6 8.4 5.7 6.2 7.3 6.4 6.2 5.6 5.0 4.8 5.4 5.8 5.3 5.4 5.8 6.1 5.0 6.5 6.5 6.5 6.5 6.5 6.5 6.5 6.5 6.5 6.5 6.5 6.5 6.5 5.9 5.8 6.2 5.4 4.9 5.0 5.5
Wind_Speed
19 20 21 21 23 24 25 24 23 23 23 22 22 21 21 19 18 16 15 15 15 14 13 15 15 13 5 6 8 1 12 10 23 16 17 13 14 9 13 8 5 3 2 5 3 3 3
20 20 23 25 24 24 26 27 24 23 22 22 22 21 20 18 17 16 15 15 13 12 13 13 13 11 5 9 5 3 11 5 13 18 18 10 12 5 9 6 6 7 6 3 2 2 1
21 23 22 23 25 27 26 25 24 24 24 22 22 20 21 17 16 16 16 12 11 11 11 11 11 4 6 13 3 7 7 4 15 18 18 7 10 6 6 5 4 6 4 5 7 4 3
21 22 23 25 26 28 28 26 24 25 24 23 22 20 20 17 17 16 14 13 13 14 12 10 8 1 6 3 9 5 7 4 9 13 14 8 5 5 3 4 4 5 2 3 2 9 5
22 23 25 26 27 28 29 26 27 26 26 24 23 21 17 15 16 15 14 14 18 17 12 9 1 3 5 2 4 5 5 5 10 7 6 9 6 4 3 6 4 4 4 5 3 7 3
21 23 24 25 27 28 27 30 27 27 27 27 25 25 20 15 15 13 13 14 16 6 2 3 1 3 4 4 4 2 3 6 7 12 11 12 5 4 3 5 9 9 4 3 6 3 2
20 22 24 23 27 26 30 28 29 30 32 31 30 22 20 15 11 10 4 3 4 3 2 3 4 5 5 3 3 1 1 4 6 11 9 11 6 16 17 5 4 8 5 4 3 1 2
20 22 23 25 28 27 29 30 31 32 33 34 32 26 18 13 9 6 4 3 2 1 4 4 8 8 7 7 4 2 3 5 7 7 5 7 12 9 12 8 6 6 6 4 1 2 1
19 21 23 25 27 29 30 29 31 32 33 34 32 31 21 9 2 4 3 3 4 1 2 2 2 6 7 8 9 12 6 1 4 10 13 1 1 15 13 9 9 2 5 3 2 1 2
19 20 23 25 26 27 26 29 31 32 32 32 32 28 15 9 5 3 0 3 1 1 4 3 3 3 3 2 5 3 5 2 3 7 16 3 3 8 13 15 8 5 3 3 4 2 1
18 20 21 23 25 26 27 30 31 31 31 29 28 21 15 11 2 2 3 2 4 4 6 6 2 4 5 3 8 1 4 3 4 6 4 1 9 16 9 2 8 2 4 4 3 4 1
18 19 21 22 24 26 28 29 30 29 29 27 24 21 11 4 2 2 4 3 4 5 3 3 4 4 2 5 1 4 4 3 2 9 12 4 1 4 3 5 5 9 5 5 3 2 1
18 20 21 22 24 26 27 28 29 28 27 26 17 16 7 2 3 4 3 3 4 5 5 3 2 3 10 5 6 3 1 3 4 4 3 4 4 4 9 8 4 1 3 1 2 2 2
17 19 21 23 24 25 27 28 28 28 28 25 16 7 6 4 6 6 2 4 9 2 2 2 0 12 7 5 7 4 2 4 5 5 4 3 4 4 1 4 7 1 1 3 3 3 1
16 18 21 22 23 25 27 28 29 29 28 24 9 3 2 3 2 3 2 5 4 2 3 1 6 7 5 8 4 4 3 3 3 1 5 5 3 1 5 3 1 3 2 1 6 2 1
16 17 19 21 23 24 26 28 29 30 30 17 2 2 2 4 2 3 3 3 1 4 3 2 4 2 3 3 3 1 2 2 3 3 1 1 5 3 2 3 8 3 6 2 2 3 3
16 18 19 19 22 23 25 28 29 30 32 9 3 3 2 6 2 2 3 3 3 2 3 2 3 5 3 4 3 2 1 1 2 3 5 3 3 2 3 1 5 2 1 4 4 1 2
15 16 18 21 21 23 25 27 29 30 31 5 2 3 2 1 4 2 3 5 4 3 3 2 3 4 3 2 3 3 3 2 2 4 4 1 4 3 1 1 1 2 4 3 3 3 1
14 16 18 19 18 22 24 27 28 29 27 3 3 3 2 2 3 3 2 3 1 3 3 2 2 2 1 3 4 3 2 4 2 3 5 5 2 3 1 1 2 2 4 4 4 3 4
13 16 16 17 15 21 22 25 28 30 28 2 2 3 4 4 2 2 3 3 3 1 2 3 3 3 4 4 5 3 2 4 1 3 8 6 3 4 5 4 3 3 3 4 5 3 4
12 15 16 17 14 18 19 23 26 30 29 2 3 1 1 3 3 3 1 3 1 3 4 5 3 2 4 3 2 3 3 3 4 4 4 3 3 2 2 1 3 3 4 8 6 5 5
12 14 16 16 15 16 18 20 24 28 24 3 3 3 3 3 3 4 2 4 2 0 2 2 5 2 1 4 3 6 6 3 4 2 3 2 3 2 3 0 5 4 7 9 8 3 8
10 12 16 16 16 13 16 15 20 22 13 3 2 2 2 4 3 1 1 1 3 1 2 4 4 4 6 3 1 2 1 4 6 6 3 4 5 2 3 2 2 5 9 12 5 5 9
9 12 14 15 14 12 14 12 13 16 9 2 2 2 2 3 2 2 3 3 1 1 3 2 3 4 3 3 3 5 8 9 8 5 2 5 4 2 1 2 1 4 3 8 14 3 11
8 10 14 16 14 18 11 11 10 11 10 2 2 2 2 4 1 5 2 3 1 4 3 3 4 1 2 1 3 4 3 3 4 5 3 3 4 3 0 2 5 0 3 6 6 4 9
9 8 11 15 15 15 11 11 9 8 8 2 1 1 2 3 3 2 3 1 1 1 2 2 2 1 3 3 2 3 3 3 3 2 5 4 4 3 2 2 3 3 0 3 2 2 4
7 10 13 15 15 15 12 13 10 9 7 2 1 1 2 3 4 1 4 2 4 2 2 0 2 2 3 2 2 1 2 3 4 6 4 2 1 4 3 3 6 6 4 0 2 2 0
7 10 13 15 16 16 14 10 11 12 10 2 3 4 1 2 6 5 5 2 1 3 3 3 3 2 2 2 2 2 2 2 2 3 5 6 5 3 3 3 6 3 3 1 2 3 3
6 11 12 15 17 17 12 10 12 13 11 4 2 2 4 3 5 5 11 14 5 2 2 1 3 3 4 3 1 2 2 2 2 2 0 4 5 4 6 5 4 2 2 3 2 3 3
Wind_Direction
345 341 341 343 336 342 333 334 334 329 326 323 326 325 322 325 322 323 319 315 308 298 290 286 288 295 313 235 234 48 337 312 192 190 196 181 170 175 188 179 122 177 189 196 199 126 173
341 345 342 342 342 332 337 331 332 330 323 322 322 322 322 321 320 320 316 321 311 297 294 291 292 295 235 258 203 307 337 313 179 191 192 177 177 155 163 182 173 183 186 167 216 226 222
343 344 344 343 338 335 339 338 335 330 324 326 323 321 317 314 313 313 317 314 315 305 295 288 288 280 239 228 29 21 337 296 181 193 183 183 156 151 130 127 178 128 143 249 229 200 242
348 345 339 346 340 335 340 338 337 334 326 325 327 321 315 312 315 313 313 314 300 288 285 280 281 275 251 210 246 272 297 303 178 185 179 180 162 109 126 117 75 118 90 164 239 174 219
346 347 344 347 341 336 344 341 338 337 331 328 323 318 316 309 311 313 306 308 302 301 280 258 252 178 254 83 212 234 185 269 139 150 155 155 154 151 108 120 101 172 187 197 300 190 137
347 349 347 350 343 339 345 343 335 331 330 331 329 322 314 306 309 309 315 307 307 331 33 104 294 120 252 203 160 117 198 198 159 155 164 179 175 145 129 173 190 168 136 175 200 178 161
348 348 347 347 341 350 346 338 339 340 336 330 325 314 301 298 305 313 350 349 22 4 38 191 197 243 141 104 358 65 225 150 148 140 178 181 173 197 186 148 161 134 135 167 197 112 194
350 350 346 347 351 351 346 348 344 342 341 340 335 325 302 283 287 331 123 145 176 163 315 258 249 275 285 316 166 253 163 180 157 181 53 156 204 182 156 141 133 131 142 188 84 71 153
348 350 348 351 351 355 350 346 343 346 348 351 348 342 321 245 255 75 150 180 74 279 286 344 149 235 240 216 132 198 186 213 121 131 132 120 268 161 166 167 138 132 154 169 129 44 79
347 349 350 352 353 355 350 344 348 350 353 356 358 3 33 102 77 148 311 133 95 152 77 14 131 173 255 125 96 155 184 114 76 129 125 156 162 126 148 181 167 152 96 105 111 91 275
347 348 352 352 355 355 358 352 349 352 353 1 7 19 31 44 105 15 358 73 149 69 68 298 354 330 44 346 141 88 4 360 112 94 154 56 157 155 151 102 109 133 132 118 100 98 57
348 350 351 355 354 358 356 352 348 353 354 359 15 20 13 11 41 358 119 58 45 38 38 344 31 24 208 124 117 111 84 11 171 59 47 69 70 66 94 63 101 154 80 58 55 95 62
349 350 352 355 357 360 358 354 349 352 353 354 352 25 50 11 16 23 346 32 30 55 281 62 74 340 120 120 115 104 128 95 103 119 74 43 16 73 114 77 43 45 136 56 24 47 210
349 349 350 355 358 360 358 355 350 351 349 346 338 3 354 80 33 13 354 41 56 23 3 56 277 138 102 126 73 74 163 87 60 71 109 119 114 359 28 138 160 133 179 159 185 182 210
346 348 350 356 357 359 357 356 351 350 347 341 340 328 349 300 348 76 19 47 158 283 307 38 85 58 52 53 79 77 347 77 43 51 128 131 80 14 43 91 85 186 97 133 104 24 6
345 347 350 355 356 358 358 357 353 349 347 346 66 349 277 311 1 76 71 76 4 195 242 172 81 48 88 87 78 86 53 282 105 35 44 115 93 35 167 72 39 98 136 89 11 138 248
346 344 345 355 353 356 359 357 355 352 349 356 47 39 256 335 78 51 53 35 313 281 215 110 167 105 105 136 125 124 49 348 75 54 77 110 86 26 121 74 160 118 118 58 104 103 174
341 341 345 348 353 356 358 357 356 355 352 23 14 31 256 82 54 18 12 335 330 305 221 265 100 91 103 134 77 83 127 168 183 134 79 59 114 112 118 164 198 149 154 144 124 206 98
335 342 345 344 355 354 357 357 355 356 358 325 352 282 311 70 69 19 321 305 266 323 343 31 91 103 98 115 107 104 105 343 146 97 155 177 57 97 126 175 14 183 169 121 97 71 203
339 341 345 345 354 352 357 356 354 356 355 54 37 6 327 35 151 97 5 312 338 237 319 21 102 68 93 61 28 132 102 10 235 76 90 90 109 149 181 199 133 167 168 172 134 152 179
335 342 344 342 351 355 354 359 356 358 354 78 31 42 15 317 357 354 146 289 332 1 346 30 56 65 141 116 98 111 106 110 31 116 61 95 117 112 254 155 130 198 176 184 198 189 172
336 344 339 338 348 357 355 0 0 5 358 67 8 351 334 281 287 299 18 10 1 329 339 3 108 40 150 136 175 185 135 149 178 65 103 22 127 97 346 154 204 242 222 198 218 228 264
332 339 334 336 342 347 352 360 6 12 29 23 335 309 296 305 338 50 269 295 308 235 52 60 145 95 49 323 214 136 95 118 147 139 129 115 132 88 274 351 299 281 223 198 185 205 210
325 328 333 336 333 342 346 353 10 9 57 106 327 299 298 288 299 213 322 325 355 326 150 21 51 98 164 149 124 65 62 72 70 41 123 120 104 88 236 9 311 246 159 189 202 201 218
319 322 329 336 330 339 336 345 352 7 17 79 286 306 314 285 337 292 329 247 356 39 63 72 11 73 119 72 76 63 18 45 49 36 41 131 119 112 128 242 285 347 177 140 175 203 205
293 309 322 324 322 328 320 335 335 344 352 76 303 303 300 312 243 304 309 319 173 79 19 50 67 31 75 80 83 158 181 156 159 94 31 73 91 118 182 266 224 248 3 152 191 183 186
286 295 315 317 316 324 322 322 324 309 328 132 224 126 301 280 276 301 238 211 135 113 130 262 163 84 39 77 89 109 182 154 161 172 161 138 141 182 220 240 273 252 237 264 163 174 273
266 289 311 311 323 319 306 303 305 303 316 156 237 178 247 276 287 285 294 264 322 128 153 212 66 358 61 85 134 187 153 214 125 160 164 184 186 187 168 210 268 215 101 192 244 269 249
278 292 304 313 321 316 324 293 298 304 309 294 227 235 134 238 278 325 275 273 252 205 151 164 188 157 166 106 140 127 171 159 191 228 340 206 182 187 180 213 233 282 279 286 255 241 297